Weather History for Dyersburg, TN

Change the Weather History Date:

Sunday, October 14, 2012

  Actual Average Record
Temperature  
Mean Temperature 68 °F -  
Max Temperature 75 °F 69 °F 84 °F (2008)
Min Temperature 60 °F 48 °F 41 °F (1997)
Cooling Degree Days 4    
Growing Degree Days 18 (Base 50)    
Moisture  
Dew Point 56 °F    
Average Humidity 64    
Maximum Humidity 77    
Minimum Humidity 53    
Precipitation  
Precipitation 0.28 in - - ()
Sea Level Pressure  
Sea Level Pressure 29.93 in    
Wind  
Wind Speed 11 mph (SW)    
Max Wind Speed 28 mph    
Max Gust Speed 38 mph    
Visibility 10 miles    
Events      
Averages and records for this station are not official NWS values.
T = Trace of Precipitation, MM = Missing Value Source: NWS Daily Summary

Daily Weather History Graph

Daily Weather History Graph

Search for Another Location

Airport:

Trip Planner

Search our weather history database for the weather conditions in past years. The results will help you decide how hot, cold, wet, or windy it might be!

Date:

Astronomy

Oct. 14, 2012 Rise Set
Actual Time 7:03 AM CDT 6:22 PM CDT
Civil Twilight 6:38 AM CDT 6:48 PM CDT
Nautical Twilight 6:08 AM CDT 7:17 PM CDT
Astronomical Twilight 5:38 AM CDT 7:47 PM CDT
Moon 6:03 AM CDT (10/14) 5:42 PM CDT (10/14)
Length of Visible Light 12h 10m
Length of Day
11h 18m
Waning Crescent, 1% of the Moon is Illuminated
Oct 14
Waning Crescent
Oct 15
New
Oct 21
First Quarter
Oct 29
Full
Nov 6
Last Quarter

Hourly Weather History & Observations

Time (CDT) Temp. Dew Point Humidity Pressure Visibility Wind Dir Wind Speed Gust Speed Precip Events Conditions
12:15 AM 69.8 °F 57.2 °F 64% 29.97 in 10.0 mi SSE 9.2 mph - N/A   Clear
12:55 AM 69.8 °F 59.0 °F 68% 29.96 in 10.0 mi South 10.4 mph - N/A   Clear
1:35 AM 69.8 °F 59.0 °F 68% 29.95 in 10.0 mi SSE 10.4 mph 16.1 mph N/A   Clear
2:15 AM 69.8 °F 59.0 °F 68% 29.94 in 10.0 mi South 9.2 mph 16.1 mph N/A   Clear
2:35 AM 69.8 °F 59.0 °F 68% 29.95 in 10.0 mi South 10.4 mph 16.1 mph N/A   Clear
2:55 AM 71.6 °F 59.0 °F 64% 29.94 in 10.0 mi South 9.2 mph 17.3 mph N/A   Clear
3:35 AM 71.6 °F 60.8 °F 69% 29.95 in 10.0 mi South 12.7 mph 19.6 mph N/A   Overcast
3:55 AM 69.8 °F 60.8 °F 73% 29.96 in 10.0 mi SSW 8.1 mph 17.3 mph 0.01 in   Mostly Cloudy
4:35 AM 69.8 °F 60.8 °F 73% 29.95 in 10.0 mi South 9.2 mph - 0.02 in   Overcast
4:55 AM 69.8 °F 60.8 °F 73% 29.95 in 10.0 mi South 6.9 mph - 0.02 in   Overcast
5:15 AM 69.8 °F 60.8 °F 73% 29.94 in 10.0 mi South 9.2 mph 16.1 mph 0.01 in   Mostly Cloudy
5:35 AM 69.8 °F 60.8 °F 73% 29.92 in 10.0 mi South 13.8 mph 19.6 mph 0.01 in   Mostly Cloudy
5:55 AM 66.2 °F 57.2 °F 73% 29.96 in 10.0 mi SSW 12.7 mph 25.3 mph 0.13 in   Mostly Cloudy
6:15 AM 64.4 °F 55.4 °F 73% 29.95 in 10.0 mi South 10.4 mph 17.3 mph N/A   Overcast
6:55 AM 64.4 °F 55.4 °F 73% 29.93 in 10.0 mi SSE 10.4 mph - 0.04 in   Overcast
7:15 AM 62.6 °F 55.4 °F 77% 29.96 in 10.0 mi South 6.9 mph - 0.01 in   Overcast
7:55 AM 64.4 °F 57.2 °F 77% 29.93 in 10.0 mi South 10.4 mph 17.3 mph 0.08 in   Overcast
8:15 AM 64.4 °F 57.2 °F 77% 29.91 in 10.0 mi South 13.8 mph 25.3 mph N/A   Overcast
8:35 AM 64.4 °F 55.4 °F 73% 29.88 in 10.0 mi South 17.3 mph 28.8 mph N/A   Overcast
8:55 AM 64.4 °F 55.4 °F 73% 29.92 in 10.0 mi South 12.7 mph 23.0 mph N/A   Mostly Cloudy
9:15 AM 64.4 °F 57.2 °F 77% 29.84 in 10.0 mi SSE 15.0 mph 33.4 mph N/A   Mostly Cloudy
9:35 AM 66.2 °F 57.2 °F 73% 29.89 in 10.0 mi South 15.0 mph 24.2 mph N/A   Scattered Clouds
10:15 AM 68.0 °F 57.2 °F 68% 29.94 in 10.0 mi SSW 8.1 mph 20.7 mph N/A   Partly Cloudy
10:35 AM 68.0 °F 57.2 °F 68% 29.94 in 10.0 mi SSW 15.0 mph 24.2 mph N/A   Partly Cloudy
10:56 AM 69.8 °F 57.2 °F 64% 29.94 in 10.0 mi SSW 9.2 mph 19.6 mph N/A   Clear
11:15 AM 69.8 °F 57.2 °F 64% 29.94 in 10.0 mi SSW 10.4 mph 19.6 mph N/A   Clear
11:35 AM 69.8 °F 57.2 °F 64% 29.92 in 10.0 mi SSW 10.4 mph 16.1 mph N/A   Clear
12:15 PM 71.6 °F 57.2 °F 60% 29.91 in 10.0 mi SSW 10.4 mph 20.7 mph N/A   Mostly Cloudy
12:35 PM 71.6 °F 57.2 °F 60% 29.92 in 10.0 mi SW 20.7 mph 28.8 mph N/A   Overcast
12:55 PM 71.6 °F 57.2 °F 60% 29.91 in 10.0 mi SW 16.1 mph 27.6 mph N/A   Overcast
1:35 PM 73.4 °F 57.2 °F 57% 29.89 in 10.0 mi SW 26.5 mph 33.4 mph N/A   Mostly Cloudy
1:55 PM 73.4 °F 57.2 °F 57% 29.89 in 10.0 mi SW 24.2 mph 38.0 mph N/A   Overcast
2:35 PM 75.2 °F 59.0 °F 57% 29.86 in 10.0 mi SW 20.7 mph 29.9 mph N/A   Mostly Cloudy
2:55 PM 75.2 °F 57.2 °F 53% 29.85 in 10.0 mi SW 17.3 mph 26.5 mph N/A   Scattered Clouds
3:15 PM 75.2 °F 57.2 °F 53% 29.86 in 10.0 mi WSW 23.0 mph 31.1 mph N/A   Mostly Cloudy
3:36 PM 75.2 °F 59.0 °F 57% 29.87 in 10.0 mi WSW 27.6 mph 33.4 mph N/A   Overcast
3:55 PM 75.2 °F 57.2 °F 53% 29.87 in 10.0 mi West 20.7 mph 28.8 mph N/A   Overcast
4:15 PM 75.2 °F 57.2 °F 53% 29.87 in 10.0 mi WSW 20.7 mph 28.8 mph N/A   Mostly Cloudy
4:55 PM 73.4 °F 55.4 °F 53% 29.89 in 10.0 mi WSW 13.8 mph 27.6 mph N/A   Overcast
5:15 PM 73.4 °F 55.4 °F 53% 29.89 in 10.0 mi SW 12.7 mph 25.3 mph N/A   Overcast
5:35 PM 73.4 °F 55.4 °F 53% 29.89 in 10.0 mi WSW 13.8 mph 20.7 mph N/A   Overcast
5:55 PM 73.4 °F 55.4 °F 53% 29.90 in 10.0 mi WSW 11.5 mph 18.4 mph N/A   Overcast
6:15 PM 71.6 °F 55.4 °F 57% 29.92 in 10.0 mi West 12.7 mph 18.4 mph N/A   Overcast
6:35 PM 71.6 °F 53.6 °F 53% 29.92 in 10.0 mi West 4.6 mph - N/A   Overcast
7:15 PM 69.8 °F 51.8 °F 53% 29.94 in 10.0 mi WSW 4.6 mph - N/A   Scattered Clouds
7:35 PM 66.2 °F 51.8 °F 60% 29.94 in 10.0 mi West 4.6 mph - N/A   Clear
7:55 PM 66.2 °F 51.8 °F 60% 29.94 in 10.0 mi SW 4.6 mph - N/A   Partly Cloudy
8:16 PM 66.2 °F 51.8 °F 60% 29.95 in 10.0 mi West 4.6 mph - N/A   Clear
8:35 PM 64.4 °F 50.0 °F 59% 29.95 in 10.0 mi WNW 4.6 mph - N/A   Clear
8:55 PM 64.4 °F 50.0 °F 59% 29.96 in 10.0 mi West 4.6 mph - N/A   Clear
9:35 PM 62.6 °F 50.0 °F 63% 29.97 in 10.0 mi West 4.6 mph - N/A   Clear
9:55 PM 64.4 °F 50.0 °F 59% 29.97 in 10.0 mi West 4.6 mph - N/A   Clear
10:15 PM 64.4 °F 50.0 °F 59% 29.97 in 10.0 mi West 4.6 mph - N/A   Clear
10:36 PM 62.6 °F 50.0 °F 63% 29.98 in 10.0 mi West 3.5 mph - N/A   Clear
10:55 PM 62.6 °F 48.2 °F 59% 29.98 in 10.0 mi West 3.5 mph - N/A   Clear
11:15 PM 62.6 °F 48.2 °F 59% 29.98 in 10.0 mi West 3.5 mph - N/A   Clear
11:35 PM 62.6 °F 48.2 °F 59% 29.98 in 10.0 mi WNW 4.6 mph - N/A   Clear
11:55 PM 60.8 °F 48.2 °F 63% 29.97 in 10.0 mi WNW 3.5 mph - N/A   Clear